* Astronomy

Members Login
Post Info TOPIC: Comet C/2010 J1 (BOATTINI)


L

Posts: 131433
Date:
Comet C/2010 J1 (BOATTINI)
Permalink  
 


Orbital elements:
C/2010 J1 (Boattini)
T 2010 Jan. 31.598 TT MPC
q 1.60295 (2000.0) P Q
Peri. 327.002 +0.123216 -0.700108
Node 253.863 -0.675147 -0.578568
e 1.0 Incl. 132.931 -0.727320 +0.418459
From 89 observations 2010 May 6-7.

MPEC 2010 - J32


Comet C/2010 J1 (Boattini) was discovered by A. Boattini (Catalina Sky Survey) on the 6th May, 2010.
The preliminary orbital elements of the comet indicate a perihelion passage on the 31st January, 2010 at a distance of approximately 1.60 AU from the Sun.

__________________
«First  <  1 2 | Page of 2  sorted by
Quick Reply

Please log in to post quick replies.



Create your own FREE Forum
Report Abuse
Powered by ActiveBoard